Time,TemperatureF,DewpointF,PressureIn,WindDirection,WindDirectionDegrees,WindSpeedMPH,WindSpeedGustMPH,Humidity,HourlyPrecipIn,Conditions,Clouds,dailyrainin,SoftwareType,DateUTC
2013-08-22 00:14:00,70.3,66.0,30.00,ESE,109,0.0,1.0,87,0.00,,,0.00,weatherlink.com 1.10,2013-08-22 04:14:00,
2013-08-22 00:29:00,70.2,66.0,30.00,ESE,117,0.0,1.0,87,0.00,,,0.00,weatherlink.com 1.10,2013-08-22 04:29:00,
2013-08-22 00:44:00,70.0,66.0,30.01,NNW,348,0.0,0.0,88,0.00,,,0.00,weatherlink.com 1.10,2013-08-22 04:44:00,
2013-08-22 00:59:00,69.7,66.0,30.01,North,9,0.0,1.0,89,0.00,,,0.00,weatherlink.com 1.10,2013-08-22 04:59:00,
2013-08-22 01:14:00,69.3,66.0,30.02,North,9,0.0,0.0,90,0.00,,,0.00,weatherlink.com 1.10,2013-08-22 05:14:00,
2013-08-22 01:29:00,69.1,66.0,30.02,North,10,0.0,0.0,91,0.00,,,0.00,weatherlink.com 1.10,2013-08-22 05:29:00,
2013-08-22 01:44:00,68.9,66.0,30.01,SW,236,0.0,1.0,91,0.00,,,0.00,weatherlink.com 1.10,2013-08-22 05:44:00,
2013-08-22 01:59:00,68.8,66.0,30.01,NW,309,0.0,1.0,91,0.00,,,0.00,weatherlink.com 1.10,2013-08-22 05:59:00,
2013-08-22 02:15:00,68.8,66.0,30.01,NW,309,0.0,0.0,91,0.00,,,0.00,weatherlink.com 1.10,2013-08-22 06:15:00,
2013-08-22 02:29:00,68.6,66.0,30.00,NW,309,0.0,0.0,92,0.00,,,0.00,weatherlink.com 1.10,2013-08-22 06:29:00,
2013-08-22 02:44:00,68.7,66.0,30.00,South,189,0.0,0.0,92,0.00,,,0.00,weatherlink.com 1.10,2013-08-22 06:44:00,
2013-08-22 02:59:00,68.7,66.0,30.00,West,279,0.0,2.0,91,0.00,,,0.00,weatherlink.com 1.10,2013-08-22 06:59:00,
2013-08-22 03:14:00,68.5,66.0,30.00,West,279,0.0,0.0,92,0.00,,,0.00,weatherlink.com 1.10,2013-08-22 07:14:00,
2013-08-22 03:30:00,68.5,66.0,30.00,West,279,0.0,0.0,92,0.00,,,0.00,weatherlink.com 1.10,2013-08-22 07:30:00,
2013-08-22 03:45:00,68.4,66.0,29.99,West,279,0.0,0.0,92,0.00,,,0.00,weatherlink.com 1.10,2013-08-22 07:45:00,
2013-08-22 04:00:00,68.3,66.0,29.98,West,279,0.0,0.0,93,0.00,,,0.00,weatherlink.com 1.10,2013-08-22 08:00:00,
2013-08-22 04:15:00,68.1,66.0,29.98,West,279,0.0,0.0,93,0.00,,,0.00,weatherlink.com 1.10,2013-08-22 08:15:00,
2013-08-22 04:30:00,67.7,66.0,29.97,West,279,0.0,0.0,93,0.00,,,0.00,weatherlink.com 1.10,2013-08-22 08:30:00,
2013-08-22 04:45:00,67.4,66.0,29.97,West,279,0.0,1.0,94,0.00,,,0.00,weatherlink.com 1.10,2013-08-22 08:45:00,
2013-08-22 05:00:00,67.2,66.0,29.97,West,279,0.0,0.0,94,0.00,,,0.00,weatherlink.com 1.10,2013-08-22 09:00:00,
2013-08-22 05:15:00,67.0,66.0,29.97,West,279,0.0,0.0,95,0.00,,,0.00,weatherlink.com 1.10,2013-08-22 09:15:00,
2013-08-22 05:30:00,66.8,65.0,29.97,West,279,0.0,0.0,95,0.00,,,0.00,weatherlink.com 1.10,2013-08-22 09:30:00,
2013-08-22 05:45:00,66.7,65.0,29.97,West,279,0.0,0.0,95,0.00,,,0.00,weatherlink.com 1.10,2013-08-22 09:45:00,
2013-08-22 06:00:00,66.6,65.0,29.98,West,279,0.0,0.0,95,0.00,,,0.00,weatherlink.com 1.10,2013-08-22 10:00:00,
2013-08-22 06:15:00,66.5,65.0,29.99,West,279,0.0,0.0,95,0.00,,,0.00,weatherlink.com 1.10,2013-08-22 10:15:00,
2013-08-22 06:30:00,66.5,65.0,29.99,West,279,0.0,0.0,96,0.00,,,0.00,weatherlink.com 1.10,2013-08-22 10:30:00,
2013-08-22 06:45:00,66.5,65.0,30.00,West,279,0.0,0.0,96,0.00,,,0.00,weatherlink.com 1.10,2013-08-22 10:45:00,
2013-08-22 08:30:00,69.9,68.0,29.99,ENE,78,0.0,2.0,92,0.00,,,0.00,weatherlink.com 1.10,2013-08-22 12:30:00,
2013-08-22 08:45:00,70.9,68.0,30.00,ESE,119,0.0,3.0,91,0.00,,,0.00,weatherlink.com 1.10,2013-08-22 12:45:00,
2013-08-22 09:00:00,72.8,69.0,29.99,East,88,0.0,2.0,88,0.00,,,0.00,weatherlink.com 1.10,2013-08-22 13:00:00,
2013-08-22 09:15:00,74.4,70.0,29.99,NNE,12,0.0,1.0,85,0.00,,,0.00,weatherlink.com 1.10,2013-08-22 13:15:00,
2013-08-22 09:30:00,76.8,71.0,29.99,WNW,302,0.0,2.0,82,0.00,,,0.00,weatherlink.com 1.10,2013-08-22 13:30:00,
2013-08-22 09:45:00,80.1,70.0,29.99,NE,42,0.0,3.0,72,0.00,,,0.00,weatherlink.com 1.10,2013-08-22 13:45:00,
2013-08-22 10:00:00,80.3,70.0,30.00,WNW,296,0.0,4.0,70,0.00,,,0.00,weatherlink.com 1.10,2013-08-22 14:00:00,
2013-08-22 10:15:00,80.3,69.0,30.00,West,270,2.0,3.0,68,0.00,,,0.00,weatherlink.com 1.10,2013-08-22 14:15:00,
2013-08-22 10:30:00,80.1,69.0,30.00,NW,312,2.0,3.0,68,0.00,,,0.00,weatherlink.com 1.10,2013-08-22 14:30:00,
2013-08-22 10:45:00,81.4,68.0,30.00,SSE,153,0.0,2.0,64,0.00,,,0.00,weatherlink.com 1.10,2013-08-22 14:45:00,
2013-08-22 11:00:00,82.9,69.0,29.99,NW,319,2.0,3.0,63,0.00,,,0.00,weatherlink.com 1.10,2013-08-22 15:00:00,
2013-08-22 11:15:00,84.0,69.0,30.00,WNW,284,1.0,4.0,60,0.00,,,0.00,weatherlink.com 1.10,2013-08-22 15:15:00,
2013-08-22 11:30:00,83.2,69.0,30.00,WNW,300,0.0,4.0,63,0.00,,,0.00,weatherlink.com 1.10,2013-08-22 15:30:00,
2013-08-22 11:45:00,83.1,69.0,29.99,WNW,283,1.0,5.0,63,0.00,,,0.00,weatherlink.com 1.10,2013-08-22 15:45:00,
2013-08-22 12:00:00,83.6,70.0,29.99,West,277,4.0,6.0,64,0.00,,,0.00,weatherlink.com 1.10,2013-08-22 16:00:00,
2013-08-22 12:16:00,82.8,69.0,29.98,West,271,5.0,8.0,64,0.00,,,0.00,weatherlink.com 1.10,2013-08-22 16:16:00,
2013-08-22 12:31:00,83.3,68.0,29.98,NW,304,3.0,9.0,61,0.00,,,0.00,weatherlink.com 1.10,2013-08-22 16:31:00,
2013-08-22 12:46:00,82.5,67.0,29.97,NW,319,1.0,7.0,60,0.00,,,0.00,weatherlink.com 1.10,2013-08-22 16:46:00,
2013-08-22 13:01:00,84.1,69.0,29.96,NW,307,4.0,8.0,61,0.00,,,0.00,weatherlink.com 1.10,2013-08-22 17:01:00,
2013-08-22 13:16:00,84.5,69.0,29.96,NW,307,4.0,9.0,59,0.00,,,0.00,weatherlink.com 1.10,2013-08-22 17:16:00,
2013-08-22 13:31:00,84.7,69.0,29.96,WNW,288,7.0,8.0,59,0.00,,,0.00,weatherlink.com 1.10,2013-08-22 17:31:00,
2013-08-22 13:46:00,84.9,69.0,29.95,NW,309,2.0,9.0,59,0.00,,,0.00,weatherlink.com 1.10,2013-08-22 17:46:00,
2013-08-22 14:01:00,85.1,69.0,29.94,WNW,293,3.0,7.0,58,0.00,,,0.00,weatherlink.com 1.10,2013-08-22 18:01:00,
2013-08-22 14:16:00,84.1,69.0,29.94,WNW,301,1.0,6.0,61,0.00,,,0.00,weatherlink.com 1.10,2013-08-22 18:16:00,
2013-08-22 14:32:00,84.6,69.0,29.93,West,275,2.0,5.0,60,0.00,,,0.00,weatherlink.com 1.10,2013-08-22 18:32:00,
2013-08-22 14:46:00,84.3,69.0,29.93,NW,306,1.0,8.0,61,0.00,,,0.00,weatherlink.com 1.10,2013-08-22 18:46:00,
2013-08-22 15:00:00,85.2,72.0,29.92,NW,310,4.0,6.0,64,0.00,,,0.00,weatherlink.com 1.10,2013-08-22 19:00:00,
2013-08-22 15:16:00,86.0,71.0,29.91,WNW,294,4.0,8.0,61,0.00,,,0.00,weatherlink.com 1.10,2013-08-22 19:16:00,
2013-08-22 15:31:00,86.6,70.0,29.90,NW,311,2.0,6.0,58,0.00,,,0.00,weatherlink.com 1.10,2013-08-22 19:31:00,
2013-08-22 15:46:00,87.1,71.0,29.90,WSW,257,4.0,5.0,59,0.00,,,0.00,weatherlink.com 1.10,2013-08-22 19:46:00,
2013-08-22 16:01:00,86.9,69.0,29.89,NW,310,3.0,6.0,55,0.00,,,0.00,weatherlink.com 1.10,2013-08-22 20:01:00,
2013-08-22 16:16:00,86.8,70.0,29.88,WNW,295,2.0,4.0,57,0.00,,,0.00,weatherlink.com 1.10,2013-08-22 20:16:00,
2013-08-22 16:31:00,86.8,70.0,29.88,WNW,296,0.0,4.0,58,0.00,,,0.00,weatherlink.com 1.10,2013-08-22 20:31:00,
2013-08-22 16:46:00,86.6,69.0,29.88,WNW,298,3.0,8.0,55,0.00,,,0.00,weatherlink.com 1.10,2013-08-22 20:46:00,
2013-08-22 17:01:00,86.5,70.0,29.87,WNW,296,2.0,6.0,58,0.00,,,0.00,weatherlink.com 1.10,2013-08-22 21:01:00,
2013-08-22 17:16:00,86.6,70.0,29.88,WNW,299,3.0,7.0,58,0.00,,,0.00,weatherlink.com 1.10,2013-08-22 21:16:00,
2013-08-22 17:31:00,86.3,69.0,29.87,WNW,299,3.0,9.0,56,0.00,,,0.00,weatherlink.com 1.10,2013-08-22 21:31:00,
2013-08-22 17:46:00,85.3,68.0,29.87,WNW,297,4.0,7.0,57,0.00,,,0.00,weatherlink.com 1.10,2013-08-22 21:46:00,
2013-08-22 18:01:00,84.0,69.0,29.87,WNW,288,1.0,4.0,60,0.00,,,0.00,weatherlink.com 1.10,2013-08-22 22:01:00,
2013-08-22 18:16:00,83.6,69.0,29.86,NW,308,0.0,3.0,62,0.00,,,0.00,weatherlink.com 1.10,2013-08-22 22:16:00,
2013-08-22 18:31:00,83.5,70.0,29.86,NW,308,0.0,1.0,64,0.00,,,0.00,weatherlink.com 1.10,2013-08-22 22:31:00,
2013-08-22 18:46:00,82.5,70.0,29.86,NW,308,0.0,0.0,67,0.00,,,0.00,weatherlink.com 1.10,2013-08-22 22:46:00,
2013-08-22 19:01:00,81.4,71.0,29.85,NW,308,0.0,0.0,70,0.00,,,0.00,weatherlink.com 1.10,2013-08-22 23:01:00,
2013-08-22 19:16:00,80.9,71.0,29.85,NW,308,0.0,1.0,71,0.00,,,0.00,weatherlink.com 1.10,2013-08-22 23:16:00,
2013-08-22 19:31:00,80.1,71.0,29.86,NW,308,1.0,1.0,73,0.00,,,0.00,weatherlink.com 1.10,2013-08-22 23:31:00,
2013-08-22 19:46:00,79.0,69.0,29.86,NW,322,2.0,3.0,71,0.00,,,0.00,weatherlink.com 1.10,2013-08-22 23:46:00,
2013-08-22 20:01:00,78.1,68.0,29.88,West,278,1.0,4.0,70,0.00,,,0.00,weatherlink.com 1.10,2013-08-23 00:01:00,
2013-08-22 20:16:00,77.2,67.0,29.88,WNW,288,0.0,3.0,70,0.00,,,0.00,weatherlink.com 1.10,2013-08-23 00:16:00,
2013-08-22 20:31:00,76.6,66.0,29.89,WNW,288,0.0,2.0,70,0.00,,,0.00,weatherlink.com 1.10,2013-08-23 00:31:00,
2013-08-22 20:46:00,75.9,67.0,29.89,WNW,288,1.0,2.0,74,0.00,,,0.00,weatherlink.com 1.10,2013-08-23 00:46:00,
2013-08-22 21:01:00,75.1,67.0,29.89,WNW,288,0.0,0.0,75,0.00,,,0.00,weatherlink.com 1.10,2013-08-23 01:01:00,
2013-08-22 21:16:00,74.2,66.0,29.89,WNW,288,0.0,1.0,76,0.00,,,0.00,weatherlink.com 1.10,2013-08-23 01:16:00,
2013-08-22 21:31:00,73.4,66.0,29.90,WNW,288,0.0,0.0,78,0.00,,,0.00,weatherlink.com 1.10,2013-08-23 01:31:00,
2013-08-22 21:46:00,72.8,66.0,29.90,WNW,288,0.0,0.0,79,0.00,,,0.00,weatherlink.com 1.10,2013-08-23 01:46:00,
2013-08-22 22:01:00,72.1,66.0,29.90,WNW,288,0.0,0.0,81,0.00,,,0.00,weatherlink.com 1.10,2013-08-23 02:01:00,
2013-08-22 22:16:00,71.5,67.0,29.91,WNW,288,0.0,0.0,84,0.00,,,0.00,weatherlink.com 1.10,2013-08-23 02:16:00,
2013-08-22 22:31:00,71.1,66.0,29.90,WNW,288,0.0,0.0,84,0.00,,,0.00,weatherlink.com 1.10,2013-08-23 02:31:00,
2013-08-22 22:46:00,70.6,67.0,29.91,WNW,288,0.0,0.0,87,0.00,,,0.00,weatherlink.com 1.10,2013-08-23 02:46:00,
2013-08-22 23:01:00,70.1,67.0,29.91,WNW,288,0.0,0.0,88,0.00,,,0.00,weatherlink.com 1.10,2013-08-23 03:01:00,
2013-08-22 23:16:00,69.5,66.0,29.91,WNW,288,0.0,0.0,88,0.00,,,0.00,weatherlink.com 1.10,2013-08-23 03:16:00,
2013-08-22 23:31:00,69.1,66.0,29.91,WNW,288,0.0,0.0,90,0.00,,,0.00,weatherlink.com 1.10,2013-08-23 03:31:00,
2013-08-22 23:46:00,68.8,66.0,29.91,WNW,288,0.0,0.0,90,0.00,,,0.00,weatherlink.com 1.10,2013-08-23 03:46:00,